When you browse on this site, cookies collect data to enhance your experience and personalize the content and advertising you see.
Visit our Privacy Policy to learn more. By continuing to use the site, you agree to this use of cookies and data.
  • In Schweiz
  • Länderverzeichnis
  • Für 7 Tage
  • Wassertemperatur
  • Satellitenkarten
  • Wetterkarte
  • Widgets
  • user-avatar
    Anmelden

    Stündliche Wetter Plateaux

    Heute, 19 Februar, Dienstag

    Zeit Temperatur Niederschläge Wind Luftdruck Luftfeuchtigkeit
    00:00 +28°C° 0 mm 1 m/S 719 mmHg 71%
    01:00 +28°C° 0 mm 1 m/S 719 mmHg 71%
    02:00 +28°C° 0 mm 2 m/S 719 mmHg 71%
    03:00 +28°C° 0 mm 2 m/S 719 mmHg 71%
    04:00 +28°C° 0 mm 2 m/S 719 mmHg 71%
    05:00 +28°C° 0 mm 2 m/S 719 mmHg 73%
    06:00 +28°C° 0 mm 2 m/S 720 mmHg 74%
    07:00 +27°C° 0 mm 1 m/S 720 mmHg 76%
    08:00 +29°C° 0.9 mm 2 m/S 720 mmHg 70%
    09:00 +31°C° 0.9 mm 2 m/S 720 mmHg 64%
    10:00 +32°C° 0.9 mm 2 m/S 721 mmHg 57%
    11:00 +34°C° 0 mm 2 m/S 720 mmHg 53%
    12:00 +34°C° 0 mm 1 m/S 720 mmHg 49%
    13:00 +35°C° 0 mm 1 m/S 719 mmHg 45%
    14:00 +35°C° 0 mm 1 m/S 719 mmHg 46%
    15:00 +35°C° 0 mm 1 m/S 718 mmHg 47%
    16:00 +34°C° 0 mm 1 m/S 717 mmHg 48%
    17:00 +33°C° 0.4 mm 1 m/S 717 mmHg 53%
    18:00 +32°C° 0.4 mm 1 m/S 717 mmHg 59%
    19:00 +30°C° 0.4 mm 1 m/S 717 mmHg 64%
    20:00 +29°C° 0.5 mm 1 m/S 718 mmHg 69%
    21:00 +29°C° 0.5 mm 1 m/S 719 mmHg 74%
    22:00 +28°C° 0.5 mm 1 m/S 720 mmHg 78%
    23:00 +27°C° 0.3 mm 1 m/S 720 mmHg 79%

    Morgen, 20 Februar, Mittwoch

    Zeit Temperatur Niederschläge Wind Luftdruck Luftfeuchtigkeit
    00:00 +27°C° 0.3 mm 2 m/S 720 mmHg 81%
    01:00 +27°C° 0.3 mm 2 m/S 720 mmHg 82%
    02:00 +26°C° 0.1 mm 2 m/S 719 mmHg 82%
    03:00 +26°C° 0.1 mm 3 m/S 719 mmHg 82%
    04:00 +26°C° 0.1 mm 3 m/S 719 mmHg 82%
    05:00 +26°C° 0 mm 3 m/S 719 mmHg 81%
    06:00 +26°C° 0 mm 3 m/S 719 mmHg 80%
    07:00 +26°C° 0 mm 3 m/S 719 mmHg 79%
    08:00 +28°C° 0 mm 3 m/S 720 mmHg 71%
    09:00 +31°C° 0 mm 3 m/S 720 mmHg 63%
    10:00 +34°C° 0 mm 3 m/S 721 mmHg 55%
    11:00 +36°C° 0 mm 2 m/S 720 mmHg 49%
    12:00 +38°C° 0 mm 2 m/S 719 mmHg 43%
    13:00 +40°C° 0 mm 1 m/S 719 mmHg 36%
    14:00 +37°C° 0 mm 1 m/S 718 mmHg 41%
    15:00 +36°C° 0 mm 1 m/S 718 mmHg 45%
    16:00 +34°C° 0 mm 1 m/S 717 mmHg 49%
    17:00 +34°C° 0 mm 2 m/S 717 mmHg 53%
    18:00 +32°C° 0 mm 2 m/S 718 mmHg 56%
    19:00 +31°C° 0 mm 3 m/S 719 mmHg 60%
    20:00 +30°C° 1.2 mm 3 m/S 719 mmHg 67%
    21:00 +28°C° 1.2 mm 3 m/S 720 mmHg 74%
    22:00 +27°C° 1.2 mm 3 m/S 721 mmHg 80%
    23:00 +27°C° 0.5 mm 3 m/S 721 mmHg 81%

    übermorgen, 21 Februar, Donnerstag

    Zeit Temperatur Niederschläge Wind Luftdruck Luftfeuchtigkeit
    00:00 +26°C° 0.5 mm 3 m/S 721 mmHg 82%
    01:00 +26°C° 0.5 mm 3 m/S 721 mmHg 83%
    02:00 +26°C° 0.2 mm 3 m/S 720 mmHg 84%
    03:00 +25°C° 0.2 mm 3 m/S 720 mmHg 85%
    04:00 +25°C° 0.2 mm 3 m/S 720 mmHg 86%
    05:00 +25°C° 0.4 mm 3 m/S 721 mmHg 85%
    06:00 +25°C° 0.4 mm 3 m/S 721 mmHg 85%
    07:00 +25°C° 0.4 mm 3 m/S 722 mmHg 84%
    08:00 +27°C° 0 mm 4 m/S 722 mmHg 76%
    09:00 +29°C° 0 mm 4 m/S 722 mmHg 68%
    10:00 +32°C° 0 mm 4 m/S 722 mmHg 60%
    11:00 +33°C° 0 mm 4 m/S 722 mmHg 55%
    12:00 +34°C° 0 mm 3 m/S 721 mmHg 49%
    13:00 +36°C° 0 mm 3 m/S 721 mmHg 44%
    14:00 +35°C° 0 mm 3 m/S 720 mmHg 46%
    15:00 +35°C° 0 mm 2 m/S 719 mmHg 49%
    16:00 +34°C° 0 mm 2 m/S 719 mmHg 51%
    17:00 +32°C° 0.5 mm 2 m/S 719 mmHg 57%
    18:00 +30°C° 0.5 mm 1 m/S 720 mmHg 63%
    19:00 +29°C° 0.5 mm 1 m/S 720 mmHg 68%
    20:00 +28°C° 0.8 mm 2 m/S 721 mmHg 71%
    21:00 +27°C° 0.8 mm 2 m/S 721 mmHg 74%
    22:00 +27°C° 0.8 mm 3 m/S 722 mmHg 78%
    23:00 +26°C° 0 mm 3 m/S 722 mmHg 80%

    22 Februar, Freitag

    Zeit Temperatur Niederschläge Wind Luftdruck Luftfeuchtigkeit
    00:00 +26°C° 0 mm 3 m/S 722 mmHg 82%
    01:00 +25°C° 0 mm 3 m/S 721 mmHg 84%
    02:00 +26°C° 0.2 mm 3 m/S 721 mmHg 84%
    03:00 +26°C° 0.2 mm 3 m/S 721 mmHg 83%
    04:00 +26°C° 0.2 mm 4 m/S 721 mmHg 83%
    05:00 +26°C° 0.1 mm 3 m/S 722 mmHg 83%
    06:00 +25°C° 0.1 mm 3 m/S 722 mmHg 83%
    07:00 +25°C° 0.1 mm 3 m/S 722 mmHg 84%
    08:00 +26°C° 0.2 mm 4 m/S 722 mmHg 82%
    09:00 +26°C° 0.2 mm 5 m/S 723 mmHg 81%
    10:00 +26°C° 0.2 mm 6 m/S 723 mmHg 79%
    11:00 +28°C° 0 mm 4 m/S 722 mmHg 71%
    12:00 +30°C° 0 mm 3 m/S 722 mmHg 62%
    13:00 +32°C° 0 mm 2 m/S 721 mmHg 54%
    14:00 +34°C° 0.1 mm 2 m/S 720 mmHg 51%
    15:00 +33°C° 0.1 mm 1 m/S 720 mmHg 48%
    16:00 +34°C° 0.1 mm 1 m/S 719 mmHg 45%
    17:00 +32°C° 0 mm 1 m/S 719 mmHg 50%
    18:00 +31°C° 0 mm 1 m/S 720 mmHg 56%
    19:00 +29°C° 0 mm 1 m/S 720 mmHg 61%
    20:00 +29°C° 0 mm 2 m/S 721 mmHg 66%
    21:00 +28°C° 0 mm 2 m/S 721 mmHg 70%
    22:00 +27°C° 0 mm 2 m/S 721 mmHg 74%
    23:00 +27°C° 0 mm 2 m/S 721 mmHg 74%

    23 Februar, Samstag

    Zeit Temperatur Niederschläge Wind Luftdruck Luftfeuchtigkeit
    00:00 +27°C° 0 mm 2 m/S 721 mmHg 75%
    01:00 +26°C° 0 mm 2 m/S 721 mmHg 76%
    02:00 +26°C° 0.2 mm 2 m/S 720 mmHg 77%
    03:00 +26°C° 0.2 mm 1 m/S 720 mmHg 78%
    04:00 +25°C° 0.2 mm 1 m/S 720 mmHg 80%
    05:00 +25°C° 0 mm 2 m/S 720 mmHg 80%
    06:00 +26°C° 0 mm 2 m/S 720 mmHg 81%
    07:00 +26°C° 0 mm 2 m/S 721 mmHg 82%
    08:00 +28°C° 0 mm 2 m/S 721 mmHg 73%
    09:00 +30°C° 0 mm 2 m/S 721 mmHg 64%
    10:00 +32°C° 0 mm 2 m/S 722 mmHg 55%
    11:00 +35°C° 0 mm 2 m/S 721 mmHg 50%
    12:00 +36°C° 0 mm 2 m/S 720 mmHg 44%
    13:00 +37°C° 0 mm 2 m/S 719 mmHg 38%
    14:00 +37°C° 0 mm 2 m/S 719 mmHg 41%
    15:00 +35°C° 0 mm 1 m/S 718 mmHg 44%
    16:00 +34°C° 0 mm 1 m/S 717 mmHg 46%
    17:00 +33°C° 0.1 mm 1 m/S 718 mmHg 50%
    18:00 +32°C° 0.1 mm 1 m/S 718 mmHg 53%
    19:00 +31°C° 0.1 mm 1 m/S 718 mmHg 57%
    20:00 +30°C° 1.2 mm 1 m/S 719 mmHg 64%
    21:00 +29°C° 1.2 mm 2 m/S 719 mmHg 71%
    22:00 +28°C° 1.2 mm 2 m/S 719 mmHg 78%
    23:00 +27°C° 1.5 mm 2 m/S 719 mmHg 79%

    24 Februar, Sonntag

    Zeit Temperatur Niederschläge Wind Luftdruck Luftfeuchtigkeit
    00:00 +27°C° 1.5 mm 2 m/S 719 mmHg 81%
    01:00 +27°C° 1.5 mm 3 m/S 719 mmHg 83%
    02:00 +27°C° 0.4 mm 3 m/S 719 mmHg 83%
    03:00 +26°C° 0.4 mm 3 m/S 719 mmHg 83%
    04:00 +26°C° 0.4 mm 2 m/S 719 mmHg 84%
    05:00 +26°C° 0.3 mm 2 m/S 719 mmHg 84%
    06:00 +26°C° 0.3 mm 2 m/S 719 mmHg 84%
    07:00 +26°C° 0.3 mm 2 m/S 720 mmHg 85%
    08:00 +28°C° 0.2 mm 2 m/S 720 mmHg 78%
    09:00 +30°C° 0.2 mm 2 m/S 721 mmHg 71%
    10:00 +32°C° 0.2 mm 1 m/S 721 mmHg 64%
    11:00 +33°C° 0.8 mm 1 m/S 720 mmHg 59%
    12:00 +33°C° 0.8 mm 0 m/S 720 mmHg 54%
    13:00 +34°C° 0.8 mm 0 m/S 719 mmHg 48%
    14:00 +33°C° 0.2 mm 0 m/S 718 mmHg 49%
    15:00 +33°C° 0.2 mm 0 m/S 718 mmHg 50%
    16:00 +32°C° 0.2 mm 0 m/S 717 mmHg 51%
    17:00 +31°C° 0 mm 0 m/S 718 mmHg 55%
    18:00 +32°C° 0 mm 1 m/S 718 mmHg 58%
    19:00 +31°C° 0 mm 1 m/S 718 mmHg 62%
    20:00 +30°C° 0.1 mm 1 m/S 719 mmHg 64%
    21:00 +30°C° 0.1 mm 1 m/S 719 mmHg 66%
    22:00 +29°C° 0.1 mm 1 m/S 719 mmHg 69%
    23:00 +28°C° 0.9 mm 1 m/S 719 mmHg 74%
    Mehr zeigen